Regional Weather Roundup
Issued by NWS

Home | Current Version | Previous Version | Graphics & Text | Print | Product List | Glossary On
Versions: 1 2 3 4 5 6 7 8 9 10 11 12 13 14 15 16 17 18 19 20 21 22 23 24 25 26 27 28 29 30 31 32 33 34 35 36 37 38 39 40 41 42 43 44 45 46 47 48 49 50
000
ASUS45 KABQ 291610
RWRNM
NEW MEXICO REGIONAL WEATHER ROUNDUP
NATIONAL WEATHER SERVICE ALBUQUERQUE NM
1000 AM MDT SAT APR 29 2017

NOTE: "FAIR" MEANS FEW OR NO CLOUDS BELOW 12,000 FEET AGL WITH NO
       SIGNIFICANT WEATHER OR OBSTRUCTIONS TO VISION.

      THIS PRODUCT IS RELEASED AS TWO VERSIONS.  ONE VERSION NEAR
      THE TOP OF THE HOUR CONTAINING PRELIMINARY DATA FROM ALBUQUERQUE
      AND OTHER STATIONS.  A FINAL VERSION WITH ADDITIONAL DATA IS
      ISSUED ABOUT 10 MINUTES AFTER THE HOUR.

NMZ501-503-504-510>518-291700-
NORTHWEST PLATEAU/NORTHCENTRAL MOUNTAINS

CITY           SKY/WX    TMP DP  RH WIND       PRES   REMARKS
FARMINGTON     FAIR      39  30  70 E7        29.93R WCI  34
LOS ALAMOS     LGT SNOW  29  29 100 CALM      29.90S VSB 1
SANTA FE       HVY SNOW  31  31 100 N10       29.91R VSB 1/4 WCI  22
TAOS             N/A     30  18  59 W15       29.90R WCI  19
ANGEL FIRE     SNOW      21  19  89 N18G24    29.92R VSB 1/2 WCI   6

$$
NMZ402-403-502-505>509-291700-
WESTCENTRAL MOUNTAINS/SOUTHWEST MOUNTAINS

CITY           SKY/WX    TMP DP  RH WIND       PRES   REMARKS
GALLUP         CLOUDY    39  23  52 NW10      29.92R WCI  32
GRANTS         PTSUNNY   36  29  75 N12G17    29.93R WCI  28
SILVER CITY    FAIR      50  18  28 W15G21    29.89R

$$
NMZ407-409-411-412-291700-
SOUTHERN DESERTS

CITY           SKY/WX    TMP DP  RH WIND       PRES   REMARKS
DEMING         FAIR      55  21  26 NW13G20   29.87R
LAS CRUCES     FAIR      53  34  49 W13       29.86R
HOLLOMAN AFB   FAIR      46  39  76 SE18      29.88R
ALAMOGORDO     FAIR      45  39  81 S14       29.86R
T OR C         PTSUNNY   50  27  40 VRB5      29.86R

$$
NMZ519>523-291700-
CENTRAL VALLEYS/CENTRAL HIGHLANDS

CITY           SKY/WX    TMP DP  RH WIND       PRES   REMARKS
ALBUQUERQUE    CLOUDY    37  32  82 E13       29.93R WCI  29
DOUBLE EAGLE   PTSUNNY   37  28  70 NW15      29.92R WCI  28
MORIARTY ARPT  HVY SNOW  32  31  96 N22       29.94R VSB<1/4 WCI  19
CLINES CORNERS LGT SNOW  27  23  85 NE21G39   29.89R FOG     WCI  13
BELEN          CLOUDY    37  34  86 E9        29.94R WCI  31
SOCORRO        CLOUDY    40  33  77 N17G24    29.92R WCI  31

$$
NMZ524>526-539-540-291700-
SOUTHCENTRAL MOUNTAINS

CITY           SKY/WX    TMP DP  RH WIND       PRES   REMARKS
RUIDOSO        LGT SNOW  32  32 100 NW5       29.85F WCI  27

$$
NMZ527>531-291700-
NORTHEAST HIGHLANDS/NORTHEAST PLAINS

CITY           SKY/WX    TMP DP  RH WIND       PRES   REMARKS
LAS VEGAS      SNOW      27  24  89 N21       29.91R VSB 1/2 WCI  13
RATON          CLOUDY    31  20  63 N22G28    29.93R WCI  18
CLAYTON        CLOUDY    30  29  96 N28G35    29.95S FOG     WCI  15

$$
NMZ532>537-291700-
EASTCENTRAL PLAINS

CITY           SKY/WX    TMP DP  RH WIND       PRES   REMARKS
SANTA ROSA     LGT SNOW  32  32 100 N20G26    29.90S WCI  20
TUCUMCARI      LGT SNOW  34  32  92 NE26G32   29.89F FOG     WCI  21
CANNON AFB     LGT RAIN  34  34 100 NE29G40   29.85F WCI  20
CLOVIS AIRPORT CLOUDY    37  30  75 N30G39    29.87F WCI  25

$$
NMZ028-029-538-291700-
SOUTHEAST PLAINS

CITY           SKY/WX    TMP DP  RH WIND       PRES   REMARKS
ROSWELL        LGT RAIN  40  36  86 NE17      29.91R WCI  31
ARTESIA        LGT RAIN  41  41 100 NE17G24   29.89S
CARLSBAD       RAIN      46  46 100 N13       29.89R
HOBBS          LGT RAIN  46  41  81 N24G31    29.86R


$$



USA.gov is the U.S. government's official web portal to all federal, state and local government web resources and services.